User: anonymous   Login
Location: Caltech
(34.1382°N, 118.1253°W)
Time: 00:08:39
(UTC-08:00)
Language:

Cosmos 1937 Rocket - Orbit

View from above orbital plane
View from above orbital plane
View from above satellite
View from above satellite

Ground track
Ground track

The orbit data is extracted from the following two-line orbital elements,

1 19039U 88029B   16044.80650938  .00000125  00000-0  49524-4 0  9999
2 19039  74.0484 120.5725 0022734  53.0697  82.4696 14.38287193460495
Epoch (UTC): 13 February 2016 19:21:22
Eccentricity: 0.0022734
inclination: 74.0484°
perigee height: 748 km
apogee height: 780 km
right ascension of ascending node: 120.5725°
argument of perigee: 53.0697°
revolutions per day: 14.38287193
mean anomaly at epoch: 82.4696°
orbit number at epoch: 46049

The dashed part of the orbit path shows where the satellite is in the earth's shadow,  

DLR